Lompoc, CA

6:12 AM PDT on June 19, 2018 (GMT -0700)
Lompoc

Weather History for KLPC - October, 2017

Change the Weather History Date:

Wednesday, October 11, 2017

  Actual Average Record
Temperature  
Mean Temperature 57 °F -  
Max Temperature 68 °F 74 °F 88 °F (1983)
Min Temperature 48 °F 50 °F 39 °F (2008)
Degree Days  
Heating Degree Days 8    
Growing Degree Days 7 (Base 50)    
Moisture  
Dew Point 51 °F    
Average Humidity 86    
Maximum Humidity 100    
Minimum Humidity 63    
Precipitation  
Precipitation 0.00 in - - ()
Sea Level Pressure  
Sea Level Pressure 29.93 in    
Wind  
Wind Speed 4 mph (NNE)    
Max Wind Speed 16 mph    
Max Gust Speed -    
Visibility 9 miles    
Events Rain    
Averages and records for this station are not official NWS values.
T = Trace of Precipitation, MM = Missing Value Source: NWS Daily Summary

Daily Weather History Graph

Daily Weather History Graph

Search for Another Location

Airport or City:

Astronomy

Oct. 11, 2017 Rise Set
Actual Time 7:04 AM PDT 6:31 PM PDT
Civil Twilight 6:39 AM PDT 6:57 PM PDT
Nautical Twilight 6:10 AM PDT 7:26 PM PDT
Astronomical Twilight 5:40 AM PDT 7:55 PM PDT
Moon 11:49 PM PDT (10/11) 1:16 PM PDT (10/11)
Length of Visible Light 12h 17m
Length of Day
11h 27m
Waning Gibbous, 58% of the Moon is Illuminated
Oct 11
Waning Gibbous
Oct 12
Last Quarter
Oct 19
New
Oct 27
First Quarter
Nov 3
Full

Hourly Weather History & Observations

Time (PDT) Temp. Dew Point Humidity Pressure Visibility Wind Dir Wind Speed Gust Speed Precip Events Conditions
12:56 AM 51.1 °F 48.9 °F 92% 29.93 in 10.0 mi Calm Calm - N/A   Overcast
1:56 AM 52.0 °F 48.9 °F 89% 29.93 in 10.0 mi ENE 3.5 mph - N/A   Overcast
2:56 AM 53.1 °F 50.0 °F 89% 29.92 in 10.0 mi Calm Calm - N/A   Overcast
3:56 AM 52.0 °F 50.0 °F 93% 29.91 in 10.0 mi ENE 3.5 mph - N/A   Overcast
4:41 AM 50.0 °F 48.2 °F 94% 29.90 in 10.0 mi ENE 3.5 mph - N/A   Scattered Clouds
4:54 AM 50.0 °F 48.2 °F 94% 29.90 in 10.0 mi Calm Calm - N/A   Mostly Cloudy
4:56 AM 50.0 °F 48.0 °F 93% 29.91 in 10.0 mi East 3.5 mph - N/A   Mostly Cloudy
5:32 AM 48.2 °F 46.4 °F 93% 29.90 in 10.0 mi East 4.6 mph - N/A   Scattered Clouds
5:56 AM 48.9 °F 46.9 °F 93% 29.92 in 10.0 mi East 3.5 mph - N/A   Partly Cloudy
6:40 AM 48.2 °F 46.4 °F 93% 29.92 in 10.0 mi Calm Calm - N/A   Mostly Cloudy
6:53 AM 48.2 °F 46.4 °F 93% 29.92 in 10.0 mi East 3.5 mph - N/A   Overcast
6:56 AM 48.0 °F 46.9 °F 96% 29.94 in 10.0 mi ENE 3.5 mph - N/A   Overcast
7:40 AM 48.2 °F 46.4 °F 93% 29.93 in 10.0 mi Calm Calm - N/A   Overcast
7:56 AM 48.0 °F 46.0 °F 93% 29.95 in 10.0 mi West 3.5 mph - N/A   Overcast
8:09 AM 50.0 °F 48.2 °F 94% 29.94 in 10.0 mi West 3.5 mph - N/A   Overcast
8:56 AM 53.1 °F 50.0 °F 89% 29.97 in 10.0 mi Calm Calm - N/A   Overcast
9:39 AM 57.2 °F 53.6 °F 88% 29.96 in 10.0 mi NE 3.5 mph - N/A   Scattered Clouds
9:48 AM 57.2 °F 53.6 °F 88% 29.96 in 10.0 mi East 3.5 mph - N/A   Mostly Cloudy
9:56 AM 59.0 °F 53.1 °F 81% 29.98 in 10.0 mi ESE 3.5 mph - N/A   Scattered Clouds
10:08 AM 60.8 °F 53.6 °F 77% 29.96 in 10.0 mi Variable 3.5 mph - N/A   Mostly Cloudy
10:48 AM 62.6 °F 53.6 °F 72% 29.95 in 10.0 mi West 6.9 mph - N/A   Overcast
10:56 AM 62.1 °F 54.0 °F 75% 29.96 in 10.0 mi Variable 4.6 mph - N/A   Overcast
11:23 AM 64.4 °F 53.6 °F 68% 29.95 in 10.0 mi NW 9.2 mph - N/A   Scattered Clouds
11:56 AM 66.0 °F 53.1 °F 63% 29.95 in 10.0 mi West 8.1 mph - N/A   Partly Cloudy
12:56 PM 66.0 °F 54.0 °F 65% 29.94 in 10.0 mi West 13.8 mph - N/A   Clear
1:56 PM 66.9 °F 54.0 °F 63% 29.92 in 9.0 mi West 16.1 mph - N/A   Clear
2:56 PM 66.0 °F 54.0 °F 65% 29.91 in 8.0 mi WSW 13.8 mph - N/A   Clear
3:56 PM 64.0 °F 54.0 °F 70% 29.91 in 10.0 mi West 16.1 mph - N/A   Clear
4:56 PM 62.1 °F 54.0 °F 75% 29.91 in 10.0 mi West 12.7 mph - N/A   Clear
5:56 PM 60.1 °F 54.0 °F 80% 29.91 in 10.0 mi West 11.5 mph - N/A   Clear
6:56 PM 57.0 °F 54.0 °F 89% 29.92 in 9.0 mi West 4.6 mph - N/A   Clear
7:56 PM 55.0 °F 52.0 °F 89% 29.92 in 9.0 mi West 3.5 mph - N/A   Clear
8:56 PM 54.0 °F 52.0 °F 93% 29.92 in 9.0 mi Calm Calm - N/A   Clear
9:56 PM 52.0 °F 48.9 °F 89% 29.93 in 10.0 mi Calm Calm - N/A   Clear
10:56 PM 50.0 °F 46.9 °F 89% 29.94 in 10.0 mi Calm Calm - N/A   Clear
11:54 PM 50.0 °F 50.0 °F 100% 29.92 in 2.5 mi East 4.6 mph - N/A   Mostly Cloudy
11:56 PM 50.0 °F 50.0 °F 100% 29.93 in 1.5 mi East 4.6 mph - 0.00 in Rain Light Rain
11:59 PM 50.0 °F 48.2 °F 94% 29.92 in 1.0 mi East 4.6 mph - 0.00 in Rain Light Rain